Location: Martinez
(33.5170°N, 82.0760°W)
Time: 13:06:17
(UTC-05:00)

Hubble Space Telescope - Visible Passes

Search period start: 01 March 2017 00:00
Search period end: 11 March 2017 00:00
Orbit: 538 x 542 km, 28.5° (Epoch: 01 March)

Date Brightness Start Highest point End Pass type
(mag) Time Alt. Az. Time Alt. Az. Time Alt. Az.
01 Mar 1.9 20:17:02 10° WSW 20:20:16 35° SSW 20:20:16 35° SSW visible
02 Mar 1.8 20:07:04 10° WSW 20:10:51 35° S 20:10:56 35° S visible
03 Mar 1.9 19:57:08 10° WSW 20:00:49 31° SSW 20:01:38 29° SSE visible
04 Mar 2.2 19:47:14 10° WSW 19:50:47 28° SSW 19:52:22 21° SSE visible
05 Mar 2.5 19:37:22 10° WSW 19:40:44 24° SSW 19:43:09 15° SSE visible
06 Mar 2.8 19:27:35 10° WSW 19:30:41 20° SSW 19:33:47 10° SSE visible
07 Mar 3.1 19:17:53 10° WSW 19:20:36 17° SSW 19:23:20 10° SSE visible
08 Mar 3.3 19:08:22 10° SW 19:10:32 14° SSW 19:12:42 10° S visible
09 Mar 3.5 18:59:16 10° SW 19:00:27 11° SSW 19:01:37 10° S visible
